Weather History for Laramie, WY

Change the Weather History Date:

Monday, November 5, 2012

  Actual Average Record
Temperature  
Mean Temperature 40 °F 34 °F  
Max Temperature 56 °F 47 °F 66 °F (1977)
Min Temperature 23 °F 22 °F -12 °F (1967)
Degree Days  
Heating Degree Days 25 31  
Month to date heating degree days 121 149  
Since 1 July heating degree days 1186 1392  
Cooling Degree Days 0 0  
Month to date cooling degree days 0 0  
Year to date cooling degree days 211 67  
Moisture  
Dew Point 26 °F    
Average Humidity 60    
Maximum Humidity 88    
Minimum Humidity 32    
Precipitation  
Precipitation 0.00 in 0.02 in 0.30 in (1990)
Month to date precipitation 0.00 0.11  
Year to date precipitation 5.90 10.17  
Sea Level Pressure  
Sea Level Pressure 30.18 in    
Wind  
Wind Speed 10 mph (WSW)    
Max Wind Speed 28 mph    
Max Gust Speed 32 mph    
Visibility 10 miles    
Events      
T = Trace of Precipitation, MM = Missing Value Source: NWS Daily Summary

Daily Weather History Graph

Daily Weather History Graph

Search for Another Location

Airport:

Trip Planner

Search our weather history database for the weather conditions in past years. The results will help you decide how hot, cold, wet, or windy it might be!

Date:

Astronomy

Nov. 05, 2012 Rise Set
Actual Time 6:39 AM MST 4:52 PM MST
Civil Twilight 6:10 AM MST 5:21 PM MST
Nautical Twilight 5:37 AM MST 5:54 PM MST
Astronomical Twilight 5:05 AM MST 6:26 PM MST
Moon 10:32 PM MST (11/5) 12:00 PM MST (11/5)
Length of Visible Light 11h 10m
Length of Day
10h 13m
Waning Gibbous, 62% of the Moon is Illuminated
Nov 5
Waning Gibbous
Nov 6
Last Quarter
Nov 13
New
Nov 20
First Quarter
Nov 28
Full

Hourly Weather History & Observations

Time (MST) Temp. Windchill Dew Point Humidity Pressure Visibility Wind Dir Wind Speed Gust Speed Precip Events Conditions
12:53 AM 30.0 °F - 23.0 °F 75% 30.24 in 10.0 mi Calm Calm - N/A   Clear
1:53 AM 30.0 °F 25.2 °F 23.0 °F 75% 30.25 in 10.0 mi SSE 4.6 mph - N/A   Clear
2:53 AM 26.1 °F 18.4 °F 21.9 °F 84% 30.26 in 10.0 mi SSW 6.9 mph - N/A   Clear
3:53 AM 27.0 °F 18.7 °F 21.9 °F 81% 30.24 in 10.0 mi SSW 8.1 mph - N/A   Clear
4:53 AM 24.1 °F 17.0 °F 21.0 °F 88% 30.27 in 10.0 mi SSE 5.8 mph - N/A   Clear
5:53 AM 27.0 °F 20.5 °F 23.0 °F 85% 30.26 in 10.0 mi SW 5.8 mph - N/A   Clear
6:53 AM 30.9 °F 27.5 °F 25.0 °F 79% 30.26 in 10.0 mi SW 3.5 mph - N/A   Clear
7:53 AM 33.1 °F 28.7 °F 28.9 °F 85% 30.27 in 10.0 mi SE 4.6 mph - N/A   Clear
8:53 AM 41.0 °F - 32.0 °F 70% 30.23 in 10.0 mi Calm Calm - N/A   Clear
9:53 AM 48.9 °F - 32.0 °F 52% 30.19 in 10.0 mi Variable 3.5 mph - N/A   Clear
10:53 AM 50.0 °F - 28.0 °F 43% 30.18 in 10.0 mi Calm Calm - N/A   Clear
11:53 AM 54.0 °F - 28.9 °F 38% 30.14 in 10.0 mi Variable 6.9 mph - N/A   Clear
12:53 PM 54.0 °F - 28.0 °F 37% 30.12 in 10.0 mi West 25.3 mph - N/A   Clear
1:53 PM 55.0 °F - 28.0 °F 35% 30.08 in 10.0 mi West 21.9 mph - N/A   Clear
2:53 PM 54.0 °F - 26.1 °F 34% 30.11 in 10.0 mi West 20.7 mph - N/A   Clear
3:53 PM 54.0 °F - 24.1 °F 31% 30.12 in 10.0 mi West 13.8 mph - N/A   Clear
4:53 PM 45.0 °F 41.2 °F 25.0 °F 46% 30.20 in 10.0 mi West 6.9 mph - N/A   Clear
5:53 PM 46.9 °F - 26.1 °F 44% 30.18 in 10.0 mi West 15.0 mph - N/A   Clear
6:53 PM 43.0 °F 37.2 °F 27.0 °F 53% 30.18 in 10.0 mi WSW 10.4 mph - N/A   Clear
7:53 PM 46.0 °F 39.3 °F 28.0 °F 50% 30.16 in 10.0 mi West 16.1 mph - N/A   Clear
8:53 PM 45.0 °F 37.6 °F 28.0 °F 52% 30.14 in 10.0 mi West 17.3 mph - N/A   Clear
9:53 PM 44.1 °F 37.7 °F 28.9 °F 55% 30.09 in 10.0 mi West 12.7 mph - N/A   Clear
10:53 PM 42.1 °F 35.7 °F 28.0 °F 58% 30.11 in 10.0 mi SW 11.5 mph - N/A   Clear
11:53 PM 36.0 °F 29.0 °F 27.0 °F 70% 30.14 in 10.0 mi West 9.2 mph - N/A   Clear